DW0326 Houston TX US current weather conditions

sailwx.info

Wind from 055 at 0 knots gusting 10

Air temperature 14.4° C
Dewpoint 4.7° C

Last reported at 2019-Dec-11 20:52 UTC.
Time now 2019-Dec-11 21:19 UTC

Location: N 29°45' W 095°27'.
View on Google Maps.

See reports from other nearby stations

  
Tides and Currents Weather Stations Pressure Air Temp Water Temp Dewpoint Dewpoint Depression Visibility Wind Speed Wind Dir Waves Ship Positions
date/time (UTC)wind fromknots sea level pressurealtimeterstation pressurevisibilityair tempwater tempwave heightnotes
2019-Dec-11 20:52 055 0 gusting 10 14.4
2019-Dec-11 20:43 036 0 gusting 9 14.4
2019-Dec-11 20:34 030 0 gusting 9 14.4
2019-Dec-11 20:25 053 0 gusting 6 14.4
2019-Dec-11 20:16 030 0 gusting 10 14.4
2019-Dec-11 20:07 059 0 gusting 6 13.9
2019-Dec-11 19:58 030 1 gusting 7 13.9
2019-Dec-11 19:49 044 2 gusting 8 13.9
2019-Dec-11 19:40 052 1 gusting 11 13.9
2019-Dec-11 19:31 039 2 gusting 9 13.3
2019-Dec-11 19:22 038 3 gusting 10 13.3
2019-Dec-11 19:13 045 2 gusting 9 13.3
2019-Dec-11 19:04 045 1 gusting 10 12.8
2019-Dec-11 18:55 047 2 gusting 10 12.8
2019-Dec-11 18:46 074 0 gusting 6 12.2
2019-Dec-11 18:37 049 3 gusting 9 12.2
2019-Dec-11 18:28 051 1 gusting 6 12.2
2019-Dec-11 18:19 037 1 gusting 10 12.2
2019-Dec-11 18:10 041 1 gusting 11 11.7
2019-Dec-11 18:01 039 2 gusting 7 11.7
2019-Dec-11 17:52 040 2 gusting 8 11.1
2019-Dec-11 17:43 023 2 gusting 6 11.1
2019-Dec-11 17:34 027 3 gusting 9 10.6
2019-Dec-11 17:25 029 2 gusting 8 10.6
2019-Dec-11 17:16 022 2 gusting 11 10.0
2019-Dec-11 17:07 036 2 gusting 11 10.0
2019-Dec-11 16:58 031 1 gusting 8 9.4
2019-Dec-11 16:49 032 0 gusting 8 9.4
2019-Dec-11 16:40 025 2 gusting 6 8.9
2019-Dec-11 16:31 025 2 gusting 10 8.9
2019-Dec-11 16:22 048 0 gusting 5 8.9
2019-Dec-11 16:13 032 1 gusting 6 8.3
2019-Dec-11 16:04 015 1 gusting 6 8.3
2019-Dec-11 15:55 009 1 gusting 7 8.3
2019-Dec-11 15:46 018 1 gusting 9 7.8
2019-Dec-11 15:37 355 0 gusting 9 7.8
2019-Dec-11 15:28 004 1 gusting 7 7.8
2019-Dec-11 15:19 019 1 gusting 6 7.2
2019-Dec-11 15:10 031 1 gusting 5 7.2
2019-Dec-11 15:01 025 1 gusting 8 6.7
2019-Dec-11 14:52 015 0 gusting 6 6.7
2019-Dec-11 14:43 040 1 gusting 7 6.7
2019-Dec-11 14:34 040 1 gusting 9 6.7
2019-Dec-11 14:25 036 2 gusting 6 6.7
2019-Dec-11 14:16 020 1 gusting 8 6.7
2019-Dec-11 14:07 045 1 gusting 8 6.1
2019-Dec-11 13:58 007 0 gusting 7 6.1
2019-Dec-11 13:49 002 0 gusting 8 6.1
2019-Dec-11 13:40 019 1 gusting 10 6.1
2019-Dec-11 13:31 034 0 gusting 8 6.1
2019-Dec-11 13:22 012 1 gusting 11 6.7
2019-Dec-11 13:13 004 1 gusting 7 6.7
2019-Dec-11 13:04 027 2 gusting 8 6.7
2019-Dec-11 12:55 031 0 gusting 8 6.7
2019-Dec-11 12:46 021 0 gusting 9 6.7
2019-Dec-11 12:37 024 0 gusting 8 6.7
2019-Dec-11 12:28 017 0 gusting 5 6.7
2019-Dec-11 12:19 009 1 gusting 8 6.7
2019-Dec-11 12:10 006 0 gusting 8 6.7
2019-Dec-11 12:01 027 1 gusting 7 6.7
2019-Dec-11 11:52 017 1 gusting 9 6.7
2019-Dec-11 11:43 013 1 gusting 7 6.7
2019-Dec-11 11:34 015 1 gusting 8 6.7
2019-Dec-11 11:25 010 1 gusting 8 6.7
2019-Dec-11 11:16 032 2 gusting 8 7.2
2019-Dec-11 11:07 021 1 gusting 7 7.2
2019-Dec-11 10:58 034 0 gusting 5 7.2
2019-Dec-11 10:49 014 1 gusting 7 7.2
2019-Dec-11 10:40 038 1 gusting 8 7.2
2019-Dec-11 10:31 020 1 gusting 8 7.2
2019-Dec-11 10:22 016 1 gusting 10 7.2
2019-Dec-11 10:13 027 0 gusting 8 7.2
2019-Dec-11 10:04 015 2 gusting 11 7.2
2019-Dec-11 09:55 029 0 gusting 9 7.2
2019-Dec-11 09:46 021 2 gusting 9 7.2
2019-Dec-11 09:37 034 2 gusting 11 7.2
2019-Dec-11 09:28 021 1 gusting 8 7.8
2019-Dec-11 09:19 018 1 gusting 10 7.8
2019-Dec-11 09:10 028 1 gusting 6 7.8
2019-Dec-11 09:01 032 1 gusting 9 7.8
2019-Dec-11 08:52 034 2 gusting 12 7.8
2019-Dec-11 08:43 031 2 gusting 12 7.8
2019-Dec-11 08:34 010 1 gusting 12 7.8
2019-Dec-11 08:25 019 0 gusting 6 7.8
2019-Dec-11 08:16 027 1 gusting 7 7.8
2019-Dec-11 08:07 036 2 gusting 11 7.8
2019-Dec-11 07:58 021 1 gusting 11 7.8
2019-Dec-11 07:49 039 1 gusting 11 7.8
2019-Dec-11 07:40 032 2 gusting 10 7.8
2019-Dec-11 07:31 025 2 gusting 11 7.8
2019-Dec-11 07:22 024 1 gusting 9 7.8
2019-Dec-11 07:13 025 2 gusting 12 7.8
2019-Dec-11 07:04 035 2 gusting 12 7.8
2019-Dec-11 06:55 029 2 gusting 13 7.8
2019-Dec-11 06:46 015 2 gusting 13 8.3
2019-Dec-11 06:37 029 1 gusting 8 8.3
2019-Dec-11 06:28 008 1 gusting 10 8.3
2019-Dec-11 06:19 005 1 gusting 9 8.3
2019-Dec-11 06:10 016 1 gusting 8 8.3
2019-Dec-11 06:01 032 3 gusting 10 8.3
2019-Dec-11 05:52 031 1 gusting 9 8.3
2019-Dec-11 05:43 023 2 gusting 9 8.3
2019-Dec-11 05:34 018 2 gusting 15 8.3
2019-Dec-11 05:25 023 2 gusting 11 8.3
2019-Dec-11 05:16 026 2 gusting 13 8.3
2019-Dec-11 05:07 025 3 gusting 13 8.3
2019-Dec-11 04:58 025 2 gusting 13 8.9
2019-Dec-11 04:49 005 1 gusting 9 8.9
2019-Dec-11 04:40 007 2 gusting 13 8.9
2019-Dec-11 04:31 017 3 gusting 13 8.9
2019-Dec-11 04:22 018 3 gusting 13 8.9
2019-Dec-11 04:13 018 2 gusting 10 8.9
2019-Dec-11 04:04 015 1 gusting 7 8.9
2019-Dec-11 03:55 005 1 gusting 13 8.9
2019-Dec-11 03:46 020 2 gusting 12 9.4
2019-Dec-11 03:37 025 2 gusting 10 9.4
2019-Dec-11 03:28 009 2 gusting 11 9.4
2019-Dec-11 03:19 022 1 gusting 11 9.4
2019-Dec-11 03:10 012 2 gusting 11 9.4
2019-Dec-11 03:01 014 3 gusting 13 9.4
2019-Dec-11 02:52 017 2 gusting 11 9.4
2019-Dec-11 02:43 007 2 gusting 9 9.4
2019-Dec-11 02:34 011 2 gusting 11 9.4
2019-Dec-11 02:25 007 2 gusting 11 9.4
2019-Dec-11 02:16 009 1 gusting 8 9.4
2019-Dec-11 02:07 009 1 gusting 8 9.4
2019-Dec-11 01:58 005 1 gusting 8 9.4
2019-Dec-11 01:49 009 2 gusting 8 9.4
2019-Dec-11 01:40 012 1 gusting 7 9.4
2019-Dec-11 01:31 021 3 gusting 13 9.4
2019-Dec-11 01:22 008 3 gusting 12 9.4
2019-Dec-11 01:13 018 2 gusting 12 9.4
2019-Dec-11 01:04 018 1 gusting 10 9.4
2019-Dec-11 00:55 006 1 gusting 10 9.4
2019-Dec-11 00:46 025 1 gusting 9 9.4
2019-Dec-11 00:37 019 2 gusting 10 9.4
2019-Dec-11 00:28 021 2 gusting 13 10.0
2019-Dec-11 00:19 014 0 gusting 10 10.0
2019-Dec-11 00:10 020 2 gusting 13 10.0
2019-Dec-11 00:01 028 2 gusting 12 10.0
2019-Dec-10 23:52 019 2 gusting 10 10.0
2019-Dec-10 23:43 020 2 gusting 12 10.0
2019-Dec-10 23:34 018 1 gusting 10 10.0
2019-Dec-10 23:25 018 2 gusting 10 10.0
2019-Dec-10 23:16 027 3 gusting 10 10.0
2019-Dec-10 23:07 038 2 gusting 11 10.0
2019-Dec-10 22:58 033 3 gusting 12 10.0
2019-Dec-10 22:49 028 5 gusting 16 10.0
2019-Dec-10 22:40 014 3 gusting 13 10.0
2019-Dec-10 22:31 031 3 gusting 13 10.0
2019-Dec-10 22:22 023 2 gusting 14 10.0
2019-Dec-10 22:13 022 2 gusting 12 10.0
2019-Dec-10 22:04 027 3 gusting 14 10.0
2019-Dec-10 21:55 023 2 gusting 11 10.0
2019-Dec-10 21:46 024 2 gusting 10 10.6
2019-Dec-10 21:37 001 2 gusting 10 10.0
2019-Dec-10 21:28 022 2 gusting 11 10.0
2019-Dec-10 21:19 014 2 gusting 7 10.0
2019-Dec-10 21:10 028 1 gusting 10 10.6
2019-Dec-10 21:01 014 2 gusting 13 10.6
2019-Dec-10 20:52 030 1 gusting 9 10.6
2019-Dec-10 20:43 023 2 gusting 12 10.6
2019-Dec-10 20:34 027 2 gusting 13 10.0
2019-Dec-10 20:25 023 2 gusting 13 10.0
2019-Dec-10 20:16 015 1 gusting 13 10.0
2019-Dec-10 20:07 018 2 gusting 13 10.0
2019-Dec-10 19:58 025 2 gusting 13 10.0
2019-Dec-10 19:49 021 2 gusting 12 10.0
2019-Dec-10 19:40 020 3 gusting 12 10.0
2019-Dec-10 19:31 017 2 gusting 11 10.6
2019-Dec-10 19:22 030 2 gusting 16 10.6
2019-Dec-10 19:13 035 1 gusting 16 10.6
2019-Dec-10 19:04 022 2 gusting 11 10.6
2019-Dec-10 18:55 018 4 gusting 12 10.6
2019-Dec-10 18:46 025 2 gusting 10 10.6
2019-Dec-10 18:37 015 2 gusting 11 10.6
2019-Dec-10 18:28 022 3 gusting 13 10.6
2019-Dec-10 18:19 020 3 gusting 14 10.6
2019-Dec-10 18:10 018 4 gusting 16 10.6
2019-Dec-10 18:01 013 4 gusting 15 11.1
2019-Dec-10 17:52 013 4 gusting 14 11.1
2019-Dec-10 17:43 017 3 gusting 13 11.1
2019-Dec-10 17:34 021 2 gusting 9 11.1
2019-Dec-10 17:25 012 2 gusting 9 11.1
2019-Dec-10 17:16 026 3 gusting 14 11.1
2019-Dec-10 17:07 014 4 gusting 13 11.1
2019-Dec-10 16:58 015 3 gusting 14 11.1
2019-Dec-10 16:49 026 4 gusting 15 11.1
2019-Dec-10 16:40 030 3 gusting 12 11.1
2019-Dec-10 16:31 023 4 gusting 13 11.1
2019-Dec-10 16:22 031 2 gusting 9 11.1
2019-Dec-10 16:13 021 2 gusting 12 11.1
2019-Dec-10 16:04 022 5 gusting 18 11.1
2019-Dec-10 15:55 035 5 gusting 18 11.1
2019-Dec-10 15:46 024 4 gusting 15 10.6
2019-Dec-10 15:37 021 3 gusting 14 10.6
2019-Dec-10 15:28 018 3 gusting 17 10.6
2019-Dec-10 15:19 019 3 gusting 13 10.6
2019-Dec-10 15:10 015 3 gusting 13 10.6
2019-Dec-10 15:01 010 1 gusting 10 11.1
2019-Dec-10 14:52 011 3 gusting 13 11.1
2019-Dec-10 14:43 013 2 gusting 12 11.1
2019-Dec-10 14:34 009 1 gusting 10 11.1
2019-Dec-10 14:25 009 3 gusting 10 11.1
2019-Dec-10 14:16 010 2 gusting 16 11.1
2019-Dec-10 14:07 010 3 gusting 16 11.1
2019-Dec-10 13:58 005 2 gusting 13 11.7
2019-Dec-10 13:49 013 3 gusting 13 11.7
2019-Dec-10 13:40 012 3 gusting 11 11.7
2019-Dec-10 13:31 012 2 gusting 13 11.7
2019-Dec-10 13:22 007 2 gusting 13 11.7
2019-Dec-10 13:13 001 2 gusting 13 11.7
2019-Dec-10 13:04 013 4 gusting 14 11.7
2019-Dec-10 12:50 008 3 gusting 13 12.2
2019-Dec-10 12:41 004 1 gusting 10 12.2
2019-Dec-10 12:32 010 1 gusting 6 12.2
2019-Dec-10 12:23 005 1 gusting 7 12.2
2019-Dec-10 12:14 005 2 gusting 11 12.2
2019-Dec-10 12:05 005 1 gusting 11 12.2
2019-Dec-10 11:56 008 0 gusting 8 12.8
2019-Dec-10 11:47 353 1 gusting 6 13.3
2019-Dec-10 11:38 012 0 gusting 6 13.3
2019-Dec-10 11:29 001 2 gusting 10 13.9
2019-Dec-10 11:20 012 1 gusting 11 14.4
2019-Dec-10 11:11 009 3 gusting 14 15.0
2019-Dec-10 11:02 003 2 gusting 12 15.0
2019-Dec-10 10:53 007 3 gusting 10 15.0
2019-Dec-10 10:44 016 3 gusting 10 15.0
2019-Dec-10 10:35 013 3 gusting 9 15.6
2019-Dec-10 10:26 004 2 gusting 11 15.6
2019-Dec-10 10:17 017 3 gusting 13 15.6
2019-Dec-10 10:08 008 3 gusting 14 15.6
2019-Dec-10 09:59 011 3 gusting 10 15.6
2019-Dec-10 09:50 014 2 gusting 9 15.6
2019-Dec-10 09:41 357 3 gusting 10 15.6
2019-Dec-10 09:32 005 4 gusting 13 15.6
2019-Dec-10 09:23 003 3 gusting 11 15.6
2019-Dec-10 09:14 005 1 gusting 8 16.1
2019-Dec-10 09:05 002 1 gusting 7 16.1
2019-Dec-10 08:56 013 2 gusting 13 15.6
2019-Dec-10 08:47 007 2 gusting 8 16.1
2019-Dec-10 08:38 001 2 gusting 7 16.1
2019-Dec-10 08:29 359 2 gusting 9 16.1
2019-Dec-10 08:20 349 0 gusting 6 17.2
2019-Dec-10 08:11 342 2 gusting 10 18.3
2019-Dec-10 08:02 345 2 gusting 8 20.0
2019-Dec-10 07:53 338 21.7
2019-Dec-10 07:44 21.7
2019-Dec-10 07:35 21.7
2019-Dec-10 07:26 21.7
2019-Dec-10 07:17 21.7
2019-Dec-10 07:08 21.7
2019-Dec-10 06:59 22.2
2019-Dec-10 06:50 22.2
2019-Dec-10 06:41 22.2
2019-Dec-10 06:32 22.2
2019-Dec-10 06:23 22.2
2019-Dec-10 06:14 22.2
2019-Dec-10 06:05 22.2
2019-Dec-10 05:56 175 0 gusting 3 22.2
2019-Dec-10 05:47 22.2
2019-Dec-10 05:38 22.2
2019-Dec-10 05:29 176 22.2
2019-Dec-10 05:20 175 22.2
2019-Dec-10 05:11 171 0 gusting 7 22.2
2019-Dec-10 05:02 22.2
2019-Dec-10 04:53 22.2
2019-Dec-10 04:44 22.2
2019-Dec-10 04:35 173 22.2
2019-Dec-10 04:26 22.2
2019-Dec-10 04:17 22.2
2019-Dec-10 04:08 22.2
2019-Dec-10 03:59 22.2
2019-Dec-10 03:50 22.2
2019-Dec-10 03:41 22.8
2019-Dec-10 03:32 22.8
2019-Dec-10 03:23 181 0 gusting 5 22.8
2019-Dec-10 03:14 181 0 gusting 7 22.8
2019-Dec-10 03:05 176 22.8
2019-Dec-10 02:56 182 1 gusting 9 22.8
2019-Dec-10 02:47 186 0 gusting 9 23.3
2019-Dec-10 02:38 190 23.3
2019-Dec-10 02:29 185 0 gusting 7 23.3
2019-Dec-10 02:20 168 0 gusting 6 23.3
2019-Dec-10 02:11 177 1 gusting 8 23.3
2019-Dec-10 02:02 182 23.3
2019-Dec-10 01:53 179 0 gusting 6 23.9
2019-Dec-10 01:44 179 0 gusting 6 23.9
2019-Dec-10 01:35 175 1 gusting 5 23.9
2019-Dec-10 01:26 193 23.9
2019-Dec-10 01:17 187 0 gusting 5 23.9
2019-Dec-10 01:08 186 1 gusting 6 23.9
2019-Dec-10 00:59 178 1 gusting 6 24.4
2019-Dec-10 00:50 189 0 gusting 8 24.4
2019-Dec-10 00:41 203 1 gusting 9 24.4
2019-Dec-10 00:32 190 1 gusting 9 24.4
2019-Dec-10 00:23 194 0 gusting 7 25.0
2019-Dec-10 00:14 205 0 gusting 4 25.0
2019-Dec-10 00:05 195 0 gusting 6 25.0
2019-Dec-09 23:56 197 3 gusting 10 25.0
2019-Dec-09 23:47 195 2 gusting 11 25.0
2019-Dec-09 23:38 187 1 gusting 10 25.0
2019-Dec-09 23:29 182 3 gusting 11 25.6
2019-Dec-09 23:20 184 4 gusting 11 25.6
2019-Dec-09 23:11 191 3 gusting 11 25.6
2019-Dec-09 23:02 191 2 gusting 10 26.1
2019-Dec-09 22:53 197 4 gusting 10 26.1
2019-Dec-09 22:44 205 2 gusting 13 26.1
2019-Dec-09 22:35 201 4 gusting 13 26.1
2019-Dec-09 22:26 198 2 gusting 12 26.1
2019-Dec-09 22:17 224 4 gusting 9 26.7
2019-Dec-09 22:08 224 3 gusting 12 26.7
2019-Dec-09 21:59 212 1 gusting 9 26.7
2019-Dec-09 21:50 214 26.7
2019-Dec-09 21:41 212 1 gusting 8 26.7
2019-Dec-09 21:32 209 3 gusting 11 26.7
2019-Dec-09 21:23 229 3 gusting 13 27.2
2019-Dec-09 21:14 240 3 gusting 11 26.7
2019-Dec-09 21:05 215 5 gusting 13 26.7